APSTAR-6D

Last updated on Wed May 21 2025 00:02:45 GMT+0000 (Coordinated Universal Time)

1 45863U 20045A 25140.57549425 -.00000308 00000+0 00000+0 0 9990 2 45863 0.0484 103.4561 0001984 349.9685 126.2747 1.00273274 17924
UTC large
Height (km)
Speed (km/s)
/
Latitude / Longitude
Inclination (degrees)
Orbital Period (minutes)
Azimuth
Elevation
Range (km)
Doppler Factor

Next 0 passes for location: London (51.5072 / 0.1276)

Sorry there are no passes over London.